Terminal Aerodrome Forecast
Issued by NWS

Home | Current Version | Previous Version | Text Only | Print | Product List | Glossary On
Versions: 1 2 3 4 5 6 7 8 9 10 11 12 13 14 15 16 17
437
FTUS43 KSGF 262021 AAB
TAFBBG
TAF AMD
KBBG 262021Z 2620/2718 30006KT 2SM -SHRA OVC002
     FM262200 30010KT P6SM VCSH OVC004
     FM270300 28006KT P6SM OVC005
      TEMPO 2710/2714 3SM BR
     FM271500 27006KT P6SM SCT250=

USA.gov is the U.S. government's official web portal to all federal, state and local government web resources and services.